Temp_Advection
nan nan nan nan nan nan nan nan nan nan nan nan nan nan nan nan nan nan nan nan nan nan
nan 0 0 0 0 0 -0 -0 -0 -0 -0 0 0 -0 -0 0 0 0 0 0 0 nan
nan 0 0 0 0 0 0 -0 -0 0 0 -0 -0 -0 0 -0 -0 0 0 0 0 nan
nan 0 0 0 -0 -0 -0 -0 -0 0 0 0 -0 -0 -0 -0 -0 -0 0 0 -0 nan
nan 0 0 -0 -0 0 0 0 0 0 0 0 0 0 -0 -0 -0 -0 0 0 0 nan
nan 0 0 0 0 0 0 0 0 0 0 0 -0 0 -0 -0 -0 0 0 0 0 nan
nan 0 0 0 0 0 0 0 0 0 0 -0 0 -0 -0 -0 -0 -0 -0 0 -0 nan
nan 0 0 0 0 0 0 0 0 0 0 0 0 0 -0 -0 -0 -0 -0 0 0 nan
nan 0 0 0 0 0 0 0 0 0 0 0 0 0 -0 -0 -0 -0 -0 -0 0 nan
nan 0 0 0 0 0 0 0 0 0 0 0 0 0 0 -0 -0 -0 -0 -0 -0 nan
nan 0 0 0 0 0 0 0 0 0 0 0 0 0 0 -0 -0 -0 -0 -0 -0 nan
nan 0 0 0 0 0 0 0 0 0 0 0 0 0 0 0 -0 -0 -0 0 -0 nan
nan 0 0 0 0 0 0 0 0 0 0 0 0 0 0 -0 -0 -0 -0 0 0 nan
nan nan nan nan nan nan nan nan nan nan nan nan nan nan nan nan nan nan nan nan nan nan
Wind_Speed
16 14 12 14 13 13 12 11 12 13 14 15 15 15 14 14 13 14 14 15 16 17
16 15 14 14 14 13 12 12 13 14 14 15 14 14 14 14 14 14 14 14 16 17
16 14 14 13 13 11 12 13 14 15 15 15 14 14 14 14 15 15 15 15 16 16
14 13 12 12 11 12 12 14 15 15 15 15 14 15 15 15 16 16 16 16 16 17
13 11 12 11 10 12 13 15 15 14 14 15 15 15 16 16 16 17 17 17 17 16
11 10 10 10 11 13 13 14 14 15 16 16 16 17 17 18 18 18 18 18 18 18
9 8 9 11 12 12 13 14 14 16 16 17 17 17 18 17 17 17 17 17 18 17
7 8 10 12 12 13 14 15 16 17 17 17 17 17 17 16 16 16 16 16 16 16
9 10 11 12 14 15 16 16 17 17 17 17 16 15 15 15 15 14 14 14 14 15
11 12 14 15 15 15 16 17 18 18 17 16 15 14 14 13 14 14 15 18 19 21
13 14 16 17 17 17 18 18 18 17 16 14 13 13 13 15 18 19 20 21 23 25
17 18 18 19 19 19 19 18 17 16 15 15 13 15 16 19 22 24 25 25 26 27
20 19 18 19 19 18 18 17 17 16 16 16 17 17 20 22 25 28 29 29 28 26
18 17 18 18 17 17 17 17 17 17 17 20 22 23 23 23 26 28 30 30 29 27
Wind_Direction
238 245 244 245 244 246 252 262 277 286 292 297 299 300 299 299 298 295 292 288 288 287
238 240 244 246 245 251 261 271 280 287 291 293 295 297 298 299 300 300 297 293 289 288
234 239 247 248 250 255 267 273 277 282 290 293 293 293 295 298 300 301 299 296 292 289
237 241 245 244 247 255 264 275 281 286 286 287 290 295 297 298 298 297 296 295 293 292
226 228 232 242 253 264 268 273 277 283 287 289 293 295 295 295 296 297 296 295 296 296
215 222 238 249 254 264 272 276 281 285 283 288 292 294 294 294 294 294 295 295 295 295
220 236 252 262 267 273 275 278 283 283 287 294 295 295 295 295 296 297 298 299 299 299
238 257 263 266 270 269 272 276 278 284 291 292 293 292 293 295 298 300 301 302 302 304
257 263 267 266 265 266 269 276 284 291 292 291 291 293 295 297 299 300 303 305 305 305
259 259 259 259 262 268 277 286 291 291 289 290 291 291 291 292 296 299 302 303 302 300
267 265 264 264 268 275 281 286 287 286 286 287 288 288 291 295 297 297 300 302 302 303
265 266 265 267 271 273 277 281 281 282 284 286 287 288 291 294 297 299 301 301 301 303
263 264 266 269 270 274 278 279 279 281 286 288 290 292 295 298 299 299 300 299 300 302
265 267 268 268 270 275 277 279 283 287 289 292 296 297 298 299 296 297 298 301 306 309
Height
1532 1534 1533 1538 1538 1539 1540 1540 1542 1542 1541 1540 1538 1537 1536 1534 1533 1532 1531 1530 1530 1529
1529 1530 1530 1533 1534 1535 1537 1537 1538 1539 1537 1536 1534 1533 1532 1531 1530 1529 1528 1527 1526 1525
1526 1525 1528 1529 1531 1530 1534 1534 1534 1534 1533 1532 1531 1529 1528 1527 1526 1524 1523 1522 1521 1520
1522 1522 1525 1527 1525 1527 1527 1531 1530 1529 1528 1529 1527 1525 1525 1523 1522 1520 1519 1518 1517 1516
1517 1517 1522 1522 1521 1524 1525 1527 1527 1525 1525 1526 1523 1521 1521 1519 1517 1516 1515 1514 1512 1511
1513 1515 1517 1518 1518 1520 1521 1524 1523 1521 1522 1520 1518 1517 1516 1514 1512 1511 1510 1509 1507 1506
1511 1511 1513 1516 1516 1517 1519 1520 1518 1520 1518 1515 1514 1512 1512 1510 1508 1507 1506 1505 1503 1502
1506 1508 1510 1512 1512 1514 1515 1515 1516 1514 1510 1508 1507 1506 1505 1504 1503 1501 1501 1500 1499 1497
1503 1505 1506 1508 1509 1511 1512 1511 1509 1506 1504 1503 1502 1501 1499 1498 1497 1496 1496 1495 1494 1493
1501 1503 1504 1505 1506 1507 1506 1505 1503 1501 1500 1499 1497 1496 1494 1493 1492 1491 1490 1489 1489 1488
1499 1500 1501 1501 1502 1501 1499 1498 1497 1496 1495 1495 1493 1492 1491 1489 1488 1486 1485 1484 1483 1480
1494 1495 1495 1496 1495 1494 1493 1492 1491 1490 1490 1490 1489 1488 1487 1486 1484 1481 1481 1479 1477 1474
1488 1488 1488 1488 1488 1488 1488 1488 1487 1487 1486 1485 1485 1485 1482 1480 1477 1475 1472 1469 1468 1467
1483 1483 1484 1484 1484 1484 1484 1484 1483 1483 1483 1482 1480 1478 1476 1474 1471 1468 1463 1461 1459 1457